Вернуться в каталог

OPS 9454

АктивенВоенныеMEO
NORAD 10941·PAYLOAD·🇺🇸 United States

Запущен Jun 10, 1978 с Cape Canaveral Space Force Station

Loading…

Ближайшие Пролёты (ближайшие 24 часа)

TLE

СвежийSource: Mike McCants

Эпоха: Sep 15, 2026, 18:04 UTC

1 10941U 78058A   26258.75332926  .00000000  00000-0  00000-0 0    06
2 10941  10.6700  17.1086 1501201  67.3268 307.8434  1.00107171  4580

Отслеживайте OPS 9454 в реальном времени с AllMySat

Download on the App Store